STARLINK-4344, 53072

Orbit data source: Space-Track

STARLINK-4344, 53072 is a payload satellite owned by SpaceX/Seattle (US) in SSO that was launched on Mon, 11 Jul 2022 UTC via an FALCON 9 launch vehicle from the Air Force Western Test Range (AFWTR). Payload-class satellites include a variety of spacecraft equipped with specific instruments for various scientific and technological missions. These include communications satellites like Starlink; space stations such as the ISS; scientific satellites like the Hubble; Earth observation satellites from companies like Planet Labs, Umbra, and HawkEye 360; GPS; miniature CubeSats for education and research; and military/defense satellites.

Loading next visibility...
Identifier
53072, 2022-077AF
Orbit
SSO
Country
Flag of USUS
Related business
Manufacturer
SpaceX/Seattle
Mission
Operational Commercial Communications
Bus & Motor
STARLINK, Unknown motor
Mass
297 kg wet, ~275 kg dry
Launch date (UTC)
2022-07-11 (4 years ago)
Launch vehicle
FALCON 9
Launch site
Air Force Western Test Range (AFWTR)
Object type
Payload
Rocket body
Debris
Shape & HBR
Box + 1 Pan, 10.1 m
Radar Cross Section
13.562 m², Large (>1 m²)

Expand to show TLE details & history
Last TLE update: 2 days ago

TLE from 2 days ago
0 STARLINK-4344
1 53072U 22077AF  26171.45697720  .00000361  00000-0  28954-4 0  9994
2 53072  97.3379 351.3816 0002027 121.6923 238.4502 15.05658731216441
Epoch: 2026-06-20T10:58Z
TLE epoch observation values (Epoch: 2026-06-20T10:58:02.830Z)
Latitude
-0.00003°
Longitude
-81.80152°
Altitude
553.292 km
Speed
7.585 km/s
True Right ascension
23h 25m 31s
True Declination
0° 00' 00"
Sunlit
Object was in daylight at epoch
Visualization orbit readout
Latitude
Unknown
Longitude
Unknown
Altitude
Unknown
Speed
Unknown
Apparent Right ascension
Unknown
Apparent Declination
Unknown
Sunlit
N/A
Visualization observer readout
Local Sidereal Time
23:21:02
Azimuth
Unknown
Elevation
Unknown
Doppler factor
Unknown
Orbital elements
Apogee altitude
547.87 km
Perigee altitude
545.063 km
Semi-major axis
6,924.603 km
Eccentricity
0.0002
Inclination
97.3379°
RAAN
351.3816°
Arg. of periapsis
121.6923°
True anomaly
238.43041°
Mean anomaly
238.4502°
Eccentric anomaly
238.4403°
Mean motion
3.76661 °/min
Orbital period
95.58 mins
BSTAR
0.000028954
Loading maneuver chart data...
Computing Atmospheric mass density...
Loading historical data...
Loading historical data...
Loading historical data...
Loading historical data...
Loading historical data...
Loading historical data...
Loading historical data...

Documentation

Showing up to 5 results
|